N1IJV-10 Weather Reports


Display with metric or nautical units.
time (UTC)temp
F
wind
direction
speed
MPH
gust
MPH
rain 1hr
in
rain 24hr
in
rain mn
in
humidity
%
barometer
mb
20260901225355 90 230 3.0 5.0 0.00 0.00 0.00 71 1010.8
20260901224850 90 277 3.0 5.0 0.00 0.00 0.00 72 1010.6
20260901224346 91 145 2.0 2.0 0.00 0.00 0.00 72 1010.7
20260901223842 91 147 1.0 2.0 0.00 0.00 0.00 72 1010.9
20260901223338 91 118 1.0 2.0 0.00 0.00 0.00 71 1010.9
20260901222833 91 101 1.0 2.0 0.00 0.00 0.00 71 1010.9
20260901222330 91 112 1.0 3.0 0.00 0.00 0.00 70 1010.7
20260901221825 90 229 2.0 3.0 0.00 0.00 0.00 71 1010.8
20260901221320 91 256 2.0 5.0 0.00 0.00 0.00 70 1011.0
20260901220820 91 199 3.0 3.0 0.00 0.00 0.00 70 1010.8
20260901220319 91 211 2.0 6.0 0.00 0.00 0.00 70 1010.9
20260901215818 92 167 3.0 3.0 0.00 0.00 0.00 69 1010.9
20260901215317 92 191 2.0 3.0 0.00 0.00 0.00 66 1010.6
20260901214816 92 167 2.0 3.0 0.00 0.00 0.00 68 1010.5
20260901214315 92 207 1.0 2.0 0.00 0.00 0.00 68 1010.6
20260901213810 92 213 1.0 2.0 0.00 0.00 0.00 66 1010.7
20260901213309 93 189 1.0 5.0 0.00 0.00 0.00 65 1010.6
20260901212804 93 109 1.0 5.0 0.00 0.00 0.00 66 1010.7
20260901212300 94 143 1.0 5.0 0.00 0.00 0.00 67 1010.6
20260901211755 94 234 3.0 5.0 0.00 0.00 0.00 64 1010.6
20260901211251 94 94 1.0 2.0 0.00 0.00 0.00 66 1010.7
20260901210747 93 288 2.0 6.0 0.00 0.00 0.00 62 1010.9
20260901210243 94 150 1.0 5.0 0.00 0.00 0.00 67 1010.9
20260901205739 94 248 2.0 3.0 0.00 0.00 0.00 67 1010.9
20260901205238 93 245 1.0 2.0 0.00 0.00 0.00 67 1011.0
20260901204734 93 220 2.0 3.0 0.00 0.00 0.00 67 1010.7
20260901204230 93 113 1.0 1.0 0.00 0.00 0.00 69 1010.9
20260901203725 93 212 1.0 3.0 0.00 0.00 0.00 67 1010.8
20260901203225 93 310 1.0 2.0 0.00 0.00 0.00 68 1011.0
20260901202724 94 105 1.0 5.0 0.00 0.00 0.00 67 1010.9
20260901202220 94 225 3.0 5.0 0.00 0.00 0.00 66 1010.9
20260901201716 94 212 1.0 3.0 0.00 0.00 0.00 65 1010.8
20260901201215 94 250 2.0 3.0 0.00 0.00 0.00 67 1011.0
20260901200715 94 233 1.0 5.0 0.00 0.00 0.00 66 1011.1
20260901200210 93 226 3.0 6.0 0.00 0.00 0.00 66 1011.1
20260901195708 94 180 3.0 3.0 0.00 0.00 0.00 67 1011.1
20260901195202 95 92 2.0 6.0 0.00 0.00 0.00 66 1011.0
20260901194658 95 225 1.0 2.0 0.00 0.00 0.00 66 1010.9
20260901194153 95 243 1.0 5.0 0.00 0.00 0.00 67 1011.1
20260901193648 95 76 2.0 5.0 0.00 0.00 0.00 65 1011.2
20260901193142 95 168 3.0 6.0 0.00 0.00 0.00 67 1011.2
20260901192637 95 242 2.0 5.0 0.00 0.00 0.00 66 1011.2
20260901192132 95 245 2.0 5.0 0.00 0.00 0.00 64 1011.3
20260901191628 95 90 1.0 2.0 0.00 0.00 0.00 64 1011.2
20260901191125 95 206 2.0 6.0 0.00 0.00 0.00 64 1011.3
20260901190620 95 269 1.0 7.0 0.00 0.00 0.00 65 1011.1
20260901190119 95 177 2.0 3.0 0.00 0.00 0.00 69 1011.4
20260901185618 94 270 1.0 3.0 0.00 0.00 0.00 70 1011.3
20260901185116 94 231 0.0 2.0 0.00 0.00 0.00 70 1011.4
20260901184612 93 174 3.0 6.0 0.00 0.00 0.00 68 1011.5
20260901184108 94 165 1.0 5.0 0.00 0.00 0.00 71 1011.6
20260901183602 93 159 2.0 5.0 0.00 0.00 0.00 70 1011.5
20260901183057 93 161 1.0 8.0 0.00 0.00 0.00 69 1011.5
20260901182553 93 173 3.0 7.0 0.00 0.00 0.00 68 1011.4
20260901182048 93 22 4.0 6.0 0.00 0.00 0.00 68 1011.6
20260901181547 93 102 0.0 5.0 0.00 0.00 0.00 69 1011.7
20260901181047 93 100 1.0 5.0 0.00 0.00 0.00 69 1011.7
20260901180545 93 99 3.0 5.0 0.00 0.00 0.00 69 1011.6
20260901180040 93 100 1.0 2.0 0.00 0.00 0.00 68 1011.7
20260901175534 93 95 2.0 5.0 0.00 0.00 0.00 70 1011.7
20260901175028 93 104 1.0 5.0 0.00 0.00 0.00 69 1011.7
20260901174524 93 108 1.0 3.0 0.00 0.00 0.00 70 1011.5
20260901174020 92 103 1.0 5.0 0.00 0.00 0.00 70 1011.6
20260901173515 93 100 0.0 3.0 0.00 0.00 0.00 71 1011.6
20260901173011 92 93 2.0 5.0 0.00 0.00 0.00 71 1011.8
20260901172506 92 101 2.0 3.0 0.00 0.00 0.00 71 1011.6
20260901172004 92 114 3.0 5.0 0.00 0.00 0.00 73 1011.7
20260901171503 91 103 2.0 5.0 0.00 0.00 0.00 73 1011.7
20260901171002 91 128 2.0 6.0 0.00 0.00 0.00 71 1011.9
20260901170456 91 117 3.0 3.0 0.00 0.00 0.00 71 1011.9
20260901165955 91 167 3.0 3.0 0.00 0.00 0.00 72 1012.1
20260901165451 91 112 3.0 5.0 0.00 0.00 0.00 72 1012.1
20260901164947 91 100 1.0 3.0 0.00 0.00 0.00 74 1012.2
20260901164442 91 104 1.0 2.0 0.00 0.00 0.00 75 1012.1
20260901163937 90 102 1.0 1.0 0.00 0.00 0.00 74 1012.1
20260901163432 90 110 3.0 6.0 0.00 0.00 0.00 74 1012.1
20260901162930 90 94 4.0 5.0 0.00 0.00 0.00 73 1012.3
20260901162426 90 128 2.0 2.0 0.00 0.00 0.00 74 1012.1
20260901161920 89 103 3.0 3.0 0.00 0.00 0.00 75 1012.2
20260901161419 88 113 2.0 5.0 0.00 0.00 0.00 76 1012.3
20260901160914 88 125 3.0 6.0 0.00 0.00 0.00 75 1012.3
20260901160410 88 108 2.0 5.0 0.00 0.00 0.00 76 1012.2
20260901155909 88 105 3.0 5.0 0.00 0.00 0.00 76 1012.1
20260901155404 88 107 2.0 3.0 0.00 0.00 0.00 76 1012.3
20260901154901 87 110 3.0 3.0 0.00 0.00 0.00 76 1011.9
20260901154400 87 117 1.0 5.0 0.00 0.00 0.00 78 1011.8
20260901153855 87 170 3.0 5.0 0.00 0.00 0.00 77 1012.3
20260901153354 86 108 1.0 3.0 0.00 0.00 0.00 80 1012.1
20260901152854 86 110 1.0 2.0 0.00 0.00 0.00 78 1012.1
20260901152349 86 119 2.0 5.0 0.00 0.00 0.00 78 1012.3
20260901151843 86 110 0.0 1.0 0.00 0.00 0.00 79 1012.2
20260901151338 86 104 1.0 1.0 0.00 0.00 0.00 79 1011.9
20260901150837 85 112 1.0 3.0 0.00 0.00 0.00 80 1012.1
20260901150335 85 141 3.0 3.0 0.00 0.00 0.00 79 1012.1
20260901145833 85 105 1.0 1.0 0.00 0.00 0.00 80 1012.2
20260901145327 84 107 1.0 3.0 0.00 0.00 0.00 80 1011.9
20260901144822 84 111 1.0 3.0 0.00 0.00 0.00 80 1012.3
20260901144318 84 105 1.0 3.0 0.00 0.00 0.00 82 1012.1
20260901143814 84 106 1.0 2.0 0.00 0.00 0.00 81 1012.1
20260901143310 83 104 2.0 5.0 0.00 0.00 0.00 81 1012.1
20260901142806 83 101 3.0 5.0 0.00 0.00 0.00 82 1012.1
20260901142306 83 119 1.0 3.0 0.00 0.00 0.00 82 1012.2
20260901141800 82 120 1.0 3.0 0.00 0.00 0.00 82 1012.2
20260901141255 82 110 2.0 3.0 0.00 0.00 0.00 83 1012.1
20260901140754 82 103 3.0 3.0 0.00 0.00 0.00 83 1011.9
20260901140252 81 97 2.0 2.0 0.00 0.00 0.00 84 1011.9
20260901135748 81 105 2.0 5.0 0.00 0.00 0.00 85 1011.6
20260901135247 80 101 3.0 3.0 0.00 0.00 0.00 86 1012.1
20260901134744 80 107 0.0 1.0 0.00 0.00 0.00 87 1012.2
20260901134243 79 106 2.0 6.0 0.00 0.00 0.00 88 1012.1
20260901133742 79 108 1.0 2.0 0.00 0.00 0.00 89 1012.2
20260901133237 79 108 2.0 2.0 0.00 0.00 0.00 88 1012.2
20260901132735 78 114 1.0 3.0 0.00 0.00 0.00 88 1012.3
20260901132230 78 117 2.0 2.0 0.00 0.00 0.00 89 1012.1
20260901131725 78 112 0.0 1.0 0.00 0.00 0.00 90 1012.2
20260901131224 78 109 0.0 2.0 0.00 0.00 0.00 90 1012.2
20260901130720 77 109 0.0 1.0 0.00 0.00 0.00 91 1012.3
20260901130219 77 119 1.0 2.0 0.00 0.00 0.00 92 1012.3
20260901125717 77 118 0.0 1.0 0.00 0.00 0.00 92 1012.4
20260901125212 77 119 1.0 2.0 0.00 0.00 0.00 92 1012.4
20260901124706 77 118 1.0 1.0 0.00 0.00 0.00 93 1012.4
20260901124201 77 111 1.0 2.0 0.00 0.00 0.00 93 1012.6
20260901123655 76 115 1.0 2.0 0.00 0.00 0.00 93 1012.6
20260901123155 76 118 0.0 1.0 0.00 0.00 0.00 93 1012.4
20260901122654 76 118 1.0 1.0 0.00 0.00 0.00 93 1012.2
20260901122149 76 117 0.0 1.0 0.00 0.00 0.00 94 1012.2
20260901121643 76 121 1.0 2.0 0.00 0.00 0.00 94 1012.2
20260901121139 76 120 1.0 1.0 0.00 0.00 0.00 94 1012.2
20260901120638 76 119 0.0 1.0 0.00 0.00 0.00 94 1011.9
20260901120133 76 118 1.0 1.0 0.00 0.00 0.00 95 1011.6
20260901115629 75 120 0.0 0.0 0.00 0.00 0.00 95 1011.7
20260901115125 75 119 0.0 0.0 0.00 0.00 0.00 95 1011.7
20260901114622 75 119 0.0 1.0 0.00 0.00 0.00 95 1011.8
20260901114120 75 120 1.0 2.0 0.00 0.00 0.00 95 1011.6
20260901113619 75 121 0.0 1.0 0.00 0.00 0.00 95 1011.5
20260901113114 75 120 0.0 0.0 0.00 0.00 0.00 95 1011.5
20260901112609 75 120 0.0 0.0 0.00 0.00 0.00 95 1011.7
20260901112104 75 119 0.0 0.0 0.00 0.00 0.00 95 1011.6
20260901111603 75 121 0.0 0.0 0.00 0.00 0.00 95 1011.4
20260901111101 75 118 0.0 0.0 0.00 0.00 0.00 95 1011.4
20260901110557 75 123 0.0 0.0 0.00 0.00 0.00 95 1011.3
20260901110052 75 119 0.0 0.0 0.00 0.00 0.00 95 1011.1
20260901105549 75 120 0.0 0.0 0.00 0.00 0.00 95 1011.0
20260901105048 75 119 0.0 0.0 0.00 0.00 0.00 96 1011.2
20260901104544 75 121 0.0 0.0 0.00 0.00 0.00 95 1011.3
20260901104040 75 119 0.0 0.0 0.00 0.00 0.00 95 1011.3
20260901103534 75 120 0.0 0.0 0.00 0.00 0.00 95 1011.2
20260901103030 75 122 0.0 0.0 0.00 0.00 0.00 95 1011.2
20260901102529 75 120 0.0 1.0 0.00 0.00 0.00 95 1011.3
20260901102024 76 119 0.0 0.0 0.00 0.00 0.00 94 1010.9
20260901101520 76 120 0.0 0.0 0.00 0.00 0.00 93 1011.0
20260901101019 76 121 0.0 0.0 0.00 0.00 0.00 93 1011.3
20260901100514 76 121 0.0 1.0 0.00 0.00 0.00 93 1011.1
20260901100014 76 121 1.0 1.0 0.00 0.00 0.00 93 1011.0
20260901095512 76 120 0.0 1.0 0.00 0.00 0.00 93 1011.0
20260901095010 76 122 0.0 1.0 0.00 0.00 0.00 93 1011.2
20260901094505 76 122 0.0 1.0 0.00 0.00 0.00 93 1011.0
20260901094004 76 120 1.0 1.0 0.00 0.00 0.00 92 1011.1
20260901093504 76 121 0.0 1.0 0.00 0.00 0.00 92 1011.0
20260901092959 76 121 0.0 1.0 0.00 0.00 0.00 92 1010.9
20260901092454 76 122 0.0 1.0 0.00 0.00 0.00 92 1010.8
20260901091945 77 120 0.0 2.0 0.00 0.00 0.00 92 1011.0
20260901091440 77 119 0.0 2.0 0.00 0.00 0.00 91 1010.9
20260901090935 77 123 1.0 2.0 0.00 0.00 0.00 91 1011.1
20260901090434 77 120 0.0 1.0 0.00 0.00 0.00 91 1011.0
20260901085930 77 120 0.0 2.0 0.00 0.00 0.00 91 1010.8
20260901085426 77 119 0.0 1.0 0.00 0.00 0.00 91 1010.8
20260901084922 77 121 0.0 1.0 0.00 0.00 0.00 91 1011.0
20260901084418 77 123 0.0 1.0 0.00 0.00 0.00 90 1010.8
20260901083913 77 125 1.0 2.0 0.00 0.00 0.00 90 1010.7
20260901083408 77 129 1.0 1.0 0.00 0.00 0.00 90 1010.8
20260901082906 77 110 0.0 1.0 0.00 0.00 0.00 90 1010.9
20260901082401 77 119 0.0 3.0 0.00 0.00 0.00 90 1010.6
20260901081856 77 112 1.0 3.0 0.00 0.00 0.00 89 1010.7
20260901081352 77 109 2.0 2.0 0.00 0.00 0.00 89 1011.0
20260901080851 78 106 1.0 3.0 0.00 0.00 0.00 89 1010.7
20260901080346 78 118 1.0 2.0 0.00 0.00 0.00 89 1010.9
20260901075840 78 103 1.0 5.0 0.00 0.00 0.00 89 1010.7
20260901075336 78 111 2.0 2.0 0.00 0.00 0.00 89 1010.7
20260901074830 78 122 1.0 3.0 0.00 0.00 0.00 89 1010.7
20260901074325 78 107 2.0 3.0 0.00 0.00 0.00 89 1010.7
20260901073821 78 118 2.0 2.0 0.00 0.00 0.00 88 1010.8
20260901073316 78 123 2.0 3.0 0.00 0.00 0.00 88 1010.8
20260901072812 78 115 1.0 3.0 0.00 0.00 0.00 88 1010.8
20260901072311 78 109 1.0 2.0 0.00 0.00 0.00 88 1010.8
20260901071807 78 107 1.0 2.0 0.00 0.00 0.00 88 1010.6
20260901071305 78 123 2.0 3.0 0.00 0.00 0.00 87 1010.6
20260901070804 78 116 1.0 5.0 0.00 0.00 0.00 87 1010.6
20260901070300 78 117 1.0 2.0 0.00 0.00 0.00 88 1010.8
20260901065759 78 118 1.0 3.0 0.00 0.00 0.00 88 1010.7
20260901065254 78 110 0.0 1.0 0.00 0.00 0.00 88 1010.6
20260901064750 78 136 1.0 2.0 0.00 0.00 0.00 89 1010.5
20260901064246 78 118 1.0 3.0 0.00 0.00 0.00 89 1010.7
20260901063744 78 111 0.0 2.0 0.00 0.00 0.00 89 1010.7
20260901063239 78 132 1.0 2.0 0.00 0.00 0.00 89 1010.8
20260901062735 78 111 0.0 1.0 0.00 0.00 0.00 89 1010.5
20260901062231 78 86 0.0 1.0 0.00 0.00 0.00 89 1010.4
20260901061727 78 115 1.0 1.0 0.00 0.00 0.00 89 1010.5
20260901061226 78 110 0.0 2.0 0.00 0.00 0.00 89 1010.5
20260901060722 78 111 0.0 1.0 0.00 0.00 0.00 89 1010.5
20260901060217 78 135 2.0 2.0 0.00 0.00 0.00 89 1010.4
20260901055712 78 113 2.0 2.0 0.00 0.00 0.00 89 1010.6
20260901055209 78 117 1.0 2.0 0.00 0.00 0.00 89 1010.6
20260901054706 78 144 2.0 3.0 0.00 0.00 0.00 89 1010.4
20260901054202 78 111 1.0 2.0 0.00 0.00 0.00 89 1010.7
20260901053658 78 112 1.0 1.0 0.00 0.00 0.00 89 1010.7
20260901053153 78 112 0.0 2.0 0.00 0.00 0.00 89 1010.6
20260901052648 78 110 1.0 1.0 0.00 0.00 0.00 89 1010.5
20260901052143 78 112 0.0 3.0 0.00 0.00 0.00 89 1010.7
20260901051642 79 108 0.0 2.0 0.00 0.00 0.00 89 1010.7
20260901051142 79 112 1.0 1.0 0.00 0.00 0.00 88 1010.6
20260901050637 79 118 2.0 2.0 0.00 0.00 0.00 88 1010.7
20260901050132 79 108 0.0 1.0 0.00 0.00 0.00 88 1010.6
20260901045627 79 109 1.0 3.0 0.00 0.30 0.30 88 1010.6
20260901045122 79 125 1.0 3.0 0.00 0.30 0.30 88 1010.6
20260901044618 79 121 1.0 2.0 0.00 0.30 0.30 88 1010.3
20260901044113 79 120 2.0 2.0 0.00 0.30 0.30 88 1010.6
20260901043608 80 128 1.0 2.0 0.00 0.30 0.30 88 1010.5
20260901043059 80 129 3.0 3.0 0.00 0.30 0.30 88 1010.6
20260901042558 80 126 1.0 2.0 0.00 0.30 0.30 88 1010.6
20260901042053 80 130 2.0 3.0 0.00 0.30 0.30 88 1010.8
20260901041548 80 109 1.0 2.0 0.00 0.30 0.30 88 1010.7
20260901041042 80 125 2.0 2.0 0.00 0.30 0.30 88 1010.6
20260901040542 80 118 0.0 2.0 0.00 0.30 0.30 88 1010.8
20260901040037 80 117 1.0 2.0 0.00 0.30 0.30 88 1010.6
20260901035535 80 112 1.0 1.0 0.00 0.30 0.30 87 1010.7
20260901035033 80 127 2.0 2.0 0.00 0.30 0.30 87 1010.8
20260901034528 80 112 0.0 3.0 0.00 0.30 0.30 87 1010.7
20260901034023 80 126 3.0 3.0 0.00 0.30 0.30 87 1011.0
20260901033522 80 115 0.0 1.0 0.00 0.30 0.30 87 1010.9
20260901033021 81 120 1.0 2.0 0.00 0.30 0.30 86 1010.8
20260901032515 80 128 1.0 3.0 0.00 0.30 0.30 87 1010.8
20260901032016 81 113 0.0 2.0 0.00 0.30 0.30 86 1010.8
20260901031511 80 124 1.0 2.0 0.00 0.30 0.30 87 1010.9
20260901031006 80 120 1.0 1.0 0.00 0.30 0.30 87 1010.9
20260901030456 80 126 1.0 2.0 0.00 0.30 0.30 88 1010.6
20260901025954 80 116 0.0 1.0 0.00 0.30 0.30 89 1010.7
20260901025449 80 118 1.0 1.0 0.00 0.30 0.30 89 1010.8
20260901024948 80 119 0.0 1.0 0.00 0.30 0.30 88 1011.0
20260901024444 80 125 1.0 2.0 0.00 0.30 0.30 88 1010.8
20260901023943 80 132 2.0 2.0 0.00 0.30 0.30 88 1010.7
20260901023437 79 120 1.0 1.0 0.00 0.30 0.30 91 1010.8
20260901022932 79 117 0.0 0.0 0.00 0.30 0.30 91 1011.2
20260901022428 79 118 1.0 1.0 0.00 0.30 0.30 91 1011.2
20260901021923 80 117 0.0 1.0 0.00 0.30 0.30 89 1011.2
20260901021419 78 140 2.0 2.0 0.00 0.30 0.30 92 1011.1
20260901020914 78 117 0.0 1.0 0.00 0.30 0.30 94 1011.1
20260901020409 78 115 0.0 1.0 0.00 0.30 0.30 93 1010.9
20260901015908 78 116 0.0 1.0 0.00 0.30 0.30 92 1010.9
20260901015404 79 115 1.0 1.0 0.00 0.30 0.30 90 1010.8
20260901014903 80 138 1.0 2.0 0.00 0.30 0.30 88 1010.8
20260901014359 78 121 1.0 2.0 0.00 0.30 0.30 91 1010.6
20260901013855 78 117 0.0 0.0 0.00 0.30 0.30 92 1010.7
20260901013345 78 117 0.0 0.0 0.00 0.30 0.30 92 1010.7
20260901012841 79 116 0.0 1.0 0.00 0.30 0.30 91 1010.6
20260901012335 80 115 1.0 1.0 0.00 0.30 0.30 89 1010.6
20260901011831 80 117 0.0 1.0 0.00 0.30 0.30 87 1010.5
20260901011326 81 127 1.0 2.0 0.00 0.30 0.30 85 1010.5
20260901010819 80 126 1.0 1.0 0.00 0.30 0.30 85 1010.4
20260901010314 80 125 1.0 1.0 0.00 0.30 0.30 87 1010.4
20260901005813 80 116 1.0 1.0 0.00 0.30 0.30 88 1010.6
20260901005309 80 117 0.0 0.0 0.00 0.30 0.30 86 1010.7
20260901004809 81 124 0.0 1.0 0.00 0.30 0.30 85 1010.8
20260901004303 80 123 1.0 1.0 0.00 0.30 0.30 85 1010.6
20260901003802 80 118 1.0 1.0 0.00 0.30 0.30 86 1010.5
20260901003257 80 122 0.0 2.0 0.00 0.30 0.30 86 1010.9
20260901002751 80 120 0.0 1.0 0.00 0.30 0.30 87 1010.5
20260901002246 81 125 1.0 2.0 0.00 0.30 0.30 85 1010.5
20260901001741 81 116 1.0 2.0 0.00 0.30 0.30 85 1010.4
20260901001236 79 119 2.0 5.0 0.00 0.30 0.30 89 1010.8
20260901000726 78 117 2.0 3.0 0.00 0.30 0.30 95 1010.4
20260901000221 78 121 0.0 0.0 0.00 0.30 0.30 97 1010.5
20260831235720 78 119 0.0 0.0 0.00 0.30 0.30 97 1010.2
20260831235216 78 122 0.0 0.0 0.00 0.30 0.30 97 1010.1
20260831234715 78 119 0.0 1.0 0.00 0.30 0.30 96 1009.9
20260831234210 78 121 1.0 2.0 0.00 0.30 0.30 96 1009.3
20260831233705 78 122 0.0 1.0 0.00 0.30 0.30 96 1008.8
20260831233201 78 114 2.0 2.0 0.00 0.30 0.30 98 1009.3
20260831232655 78 121 0.0 1.0 0.00 0.30 0.30 98 1010.5
20260831232152 78 127 0.0 0.0 0.00 0.30 0.30 98 1010.8
20260831231648 78 131 1.0 1.0 0.00 0.30 0.30 98 1010.8
20260831231143 78 83 0.0 0.0 0.00 0.30 0.30 98 1011.0
20260831230638 79 89 0.0 1.0 0.00 0.30 0.30 98 1010.6
20260831230133 79 87 0.0 1.0 0.00 0.30 0.30 97 1010.4